sat.trackr.live / text

‹ back to catalog

STARLINK-31164

NORAD 58733 · 2024-005F

PAYLOAD ACTIVE UNKNOWN

§ Identity

Operator
Country
US
Launch date
2024-01-07
Launch site
AFETR
Launch vehicle
Mass (kg)
RCS (m²)

Purposes: comms

External: N2YO · Heavens-Above · Gunter

§ Orbital elements

Epoch: 2026-09-20T04:30:06.095520Z

Period
94.27 min
Inclination
43.0004°
Eccentricity
0.0000704
Mean motion
15.27574398 rev/d
Perigee alt
482.6 km
Apogee alt
483.5 km
Semi-major
6,861.2 km
B*
-2.6342e-5
RAAN
200.9838°
Arg perigee
265.7237°
Mean anomaly
94.3534°
Rev number
15,018

§ Raw data

STARLINK-311641 58733U 24005F   26263.18757055 -.00000986  00000+0 -26342-4 0  99992 58733  43.0004 200.9838 0000704 265.7237  94.3534 15.27574398150186

JSON: /api/v1/satellites/58733 · /tle

For live sub-satellite position, see the globe view (requires WebGL).

§ Visibility from observer

Set your observer location to see the next 7 days of passes ≥ 10°. The values pass through the URL so the page stays shareable.

No JS? Fill the form by hand. The geolocation button needs JavaScript.